Location: Cluj-Napoca
(46.7712°N, 23.6236°E)
Time: 00:16:33
(UTC+03:00)

ISS - Visible Passes

Search period start: 16 May 2021 00:00
Search period end: 26 May 2021 00:00
Orbit: 417 x 422 km, 51.6° (Epoch: 15 May)

Date Brightness Start Highest point End Pass type
(mag) Time Alt. Az. Time Alt. Az. Time Alt. Az.
16 May -2.2 00:42:26 10° WNW 00:45:36 36° N 00:48:46 10° ENE visible
16 May -2.5 02:19:38 10° WNW 02:22:53 42° NNE 02:26:08 10° E visible
16 May -3.7 03:56:28 10° WNW 03:59:48 55° SSW 04:03:06 10° SE visible
16 May -3.8 22:17:47 10° SW 22:21:06 61° SSE 22:24:26 10° ENE visible
16 May -2.4 23:54:49 10° W 23:58:03 41° NNW 00:01:16 10° ENE visible
17 May -2.2 01:32:09 10° WNW 01:35:19 37° N 01:38:30 10° ENE visible
17 May -3.9 03:08:59 10° WNW 03:12:22 83° SSW 03:15:45 10° ESE visible
17 May -2.1 04:46:44 10° W 04:48:44 15° SW 04:50:45 10° S visible
17 May -3.3 21:30:33 10° SW 21:33:42 39° SE 21:36:53 10° ENE visible
17 May -2.8 23:07:12 10° W 23:10:29 49° NNW 23:13:47 10° ENE visible
18 May -2.1 00:44:36 10° WNW 00:47:44 34° N 00:49:59 16° ENE visible
18 May -1.8 02:21:31 10° WNW 02:22:52 22° WNW 02:22:52 22° WNW visible
18 May -3.3 22:19:37 10° WSW 22:22:58 65° NNW 22:26:20 10° ENE visible
18 May -2.0 23:57:02 10° WNW 00:00:09 34° N 00:03:17 10° ENE visible
19 May -2.4 01:34:04 10° WNW 01:36:27 38° NW 01:36:27 38° NW visible
19 May -3.7 21:32:07 10° WSW 21:35:29 90° WNW 21:38:52 10° ENE visible
19 May -2.1 23:09:25 10° WNW 23:12:34 36° N 23:15:43 10° ENE visible
20 May -2.6 00:46:35 10° WNW 00:49:50 42° NNE 00:50:16 40° NE visible
20 May -2.4 22:21:46 10° W 22:24:59 40° NNW 22:28:12 10° ENE visible
20 May -2.3 23:59:05 10° WNW 00:02:16 37° N 00:04:09 20° ENE visible
21 May -1.6 01:35:55 10° WNW 01:37:05 20° WNW 01:37:05 20° WNW visible
21 May -2.7 21:34:08 10° W 21:37:25 49° NNW 21:40:43 10° ENE visible
21 May -2.1 23:11:32 10° WNW 23:14:39 34° N 23:17:48 10° ENE visible
22 May -2.9 00:48:27 10° WNW 00:51:02 47° NW 00:51:02 47° NW visible
22 May -2.1 22:23:56 10° WNW 22:27:03 34° N 22:30:11 10° ENE visible
23 May -3.1 00:00:58 10° WNW 00:04:17 53° NNE 00:05:00 43° ENE visible
23 May -0.9 01:37:55 10° WNW 01:37:56 10° WNW 01:37:56 10° WNW visible
23 May -2.6 23:13:29 10° WNW 23:16:44 42° NNE 23:19:00 17° E visible
24 May -2.0 00:50:19 10° WNW 00:51:56 25° W 00:51:56 25° W visible
24 May -2.3 22:25:57 10° WNW 22:29:08 37° N 22:32:18 10° ENE visible
25 May -3.8 00:02:48 10° WNW 00:05:58 75° W 00:05:58 75° W visible
25 May -2.2 21:38:23 10° WNW 21:41:31 34° N 21:44:39 10° ENE visible
25 May -3.6 23:15:18 10° WNW 23:18:40 71° NNE 23:20:01 33° E visible
